CW9181 Weather Reports


Display with metric or nautical units.
time (UTC)temp
F
wind
direction
speed
MPH
gust
MPH
rain 1hr
in
rain 24hr
in
rain mn
in
humidity
%
barometer
mb
20260502194813 67 162 4.0 8.0 0.00 0.00 0.00 65 1012.7
20260502193816 66 142 5.0 10.0 0.00 0.00 0.00 65 1012.7
20260502192818 67 145 5.0 8.0 0.00 0.00 0.00 66 1012.8
20260502191835 66 162 5.0 10.0 0.00 0.00 0.00 66 1012.9
20260502190834 66 178 6.0 11.0 0.00 0.00 0.00 67 1013.0
20260502185827 65 107 2.0 7.0 0.00 0.00 0.00 70 1013.2
20260502184822 65 151 2.0 9.0 0.00 0.00 0.00 70 1013.0
20260502183842 65 214 2.0 8.0 0.00 0.00 0.00 71 1012.9
20260502182817 63 207 4.0 9.0 0.00 0.00 0.00 71 1012.9
20260502181817 63 173 3.0 8.0 0.00 0.00 0.00 72 1013.1
20260502180840 63 153 3.0 9.0 0.00 0.00 0.00 72 1013.0
20260502163819 61 172 4.0 6.0 0.00 0.00 0.00 76 1013.0
20260502162816 61 148 4.0 9.0 0.00 0.00 0.00 76 1012.8
20260502161817 60 165 3.0 9.0 0.00 0.00 0.00 77 1012.8
20260502160819 60 158 5.0 9.0 0.00 0.00 0.00 76 1012.6
20260502151823 57 100 2.0 7.0 0.00 0.00 0.00 82 1012.4
20260502150808 56 130 4.0 9.0 0.00 0.00 0.00 83 1012.3
20260502122805 55 127 2.0 5.0 0.00 0.00 0.00 84 1011.1
20260502121808 55 166 2.0 6.0 0.00 0.00 0.00 83 1011.2
20260502120806 55 193 2.0 9.0 0.00 0.00 0.00 83 1011.1
20260502115805 55 137 4.0 8.0 0.00 0.00 0.00 82 1011.2
20260502114808 55 155 4.0 7.0 0.00 0.00 0.00 82 1011.4
20260502113804 56 150 5.0 8.0 0.00 0.00 0.00 81 1011.5
20260502112803 56 176 3.0 7.0 0.00 0.00 0.00 81 1011.5
20260502111807 56 165 4.0 10.0 0.00 0.00 0.00 81 1011.2
20260502110808 56 177 3.0 8.0 0.00 0.00 0.00 81 1011.2
20260502105811 57 136 2.0 6.0 0.00 0.00 0.00 80 1011.3
20260502104813 57 174 2.0 7.0 0.00 0.00 0.00 80 1011.4
20260502103834 57 139 2.0 5.0 0.00 0.00 0.00 80 1011.4
20260502102840 57 159 3.0 8.0 0.00 0.00 0.00 80 1011.4
20260502101841 57 116 2.0 7.0 0.00 0.00 0.00 80 1011.4
20260502100819 58 151 2.0 8.0 0.00 0.00 0.00 79 1011.3
20260502090812 59 137 1.0 5.0 0.00 0.00 0.00 78 1011.6
20260502070819 62 182 4.0 10.0 0.00 0.00 0.00 77 1011.8
20260502065831 63 151 2.0 9.0 0.00 0.00 0.00 77 1011.8
20260502064822 63 140 4.0 8.0 0.00 0.00 0.00 77 1011.7
20260502063822 64 110 3.0 7.0 0.00 0.00 0.00 76 1011.7
20260502062823 64 130 3.0 7.0 0.00 0.00 0.00 75 1011.5
20260502061819 65 193 5.0 9.0 0.00 0.00 0.00 75 1011.5
20260502060816 65 144 4.0 8.0 0.00 0.00 0.00 74 1011.7
20260502055835 66 149 3.0 8.0 0.00 0.00 0.00 74 1011.7
20260502054809 66 171 4.0 7.0 0.00 0.00 0.00 73 1011.7
20260502053806 67 126 4.0 10.0 0.00 0.00 0.00 72 1011.6
20260502052825 67 192 4.0 7.0 0.00 0.00 0.00 71 1011.7
20260502051822 68 151 3.0 7.0 0.00 0.00 0.00 70 1011.5
20260502050816 68 156 3.0 7.0 0.00 0.00 0.00 70 1011.5
20260502045808 69 132 0.0 3.0 0.00 0.00 0.00 68 1011.4
20260502044822 69 168 1.0 4.0 0.00 0.00 0.00 67 1011.3
20260502043819 70 193 1.0 4.0 0.00 0.00 0.00 66 1011.2
20260502042818 70 159 0.0 6.0 0.00 0.00 0.00 65 1011.1
20260502041810 71 199 2.0 6.0 0.00 0.00 0.00 64 1011.1
20260502040806 72 182 1.0 4.0 0.00 0.00 0.00 63 1011.0
20260502035823 72 192 2.0 9.0 0.00 0.00 0.00 61 1010.8
20260502034815 73 223 1.0 7.0 0.00 0.00 0.00 59 1010.7
20260502033815 74 214 2.0 6.0 0.00 0.00 0.00 56 1010.5
20260502032815 74 188 1.0 5.0 0.00 0.00 0.00 54 1010.4
20260502031827 75 191 2.0 8.0 0.00 0.00 0.00 53 1010.3
20260502030822 75 160 5.0 9.0 0.00 0.00 0.00 54 1010.2
20260502025820 76 172 2.0 6.0 0.00 0.00 0.00 56 1010.2
20260502024817 77 177 2.0 4.0 0.00 0.00 0.00 55 1010.1
20260502023819 78 195 2.0 4.0 0.00 0.00 0.00 54 1010.0
20260502022822 78 171 3.0 7.0 0.00 0.00 0.00 54 1009.9
20260502021819 79 169 2.0 8.0 0.00 0.00 0.00 53 1009.9
20260502020819 79 187 3.0 8.0 0.00 0.00 0.00 52 1009.9
20260502015817 80 178 4.0 11.0 0.00 0.00 0.00 51 1010.0
20260502014833 80 142 5.0 10.0 0.00 0.00 0.00 50 1010.0
20260502013812 81 199 5.0 10.0 0.00 0.00 0.00 50 1010.0
20260502012811 82 149 3.0 9.0 0.00 0.00 0.00 47 1010.0
20260502011844 82 161 3.0 8.0 0.00 0.00 0.00 46 1010.1
20260502010840 83 110 4.0 10.0 0.00 0.00 0.00 45 1010.2
20260502005817 84 96 4.0 7.0 0.00 0.00 0.00 45 1010.2
20260502004814 83 176 4.0 8.0 0.00 0.00 0.00 47 1010.3
20260502003814 83 144 4.0 9.0 0.00 0.00 0.00 45 1010.3
20260502002809 84 243 3.0 8.0 0.00 0.00 0.00 44 1010.3
20260502001843 84 188 6.0 9.0 0.00 0.00 0.00 44 1010.3
20260502000822 84 172 2.0 7.0 0.00 0.00 0.00 43 1010.4
20260501235819 84 201 5.0 9.0 0.00 0.00 0.00 42 1010.4
20260501234827 84 114 1.0 7.0 0.00 0.00 0.00 39 1010.6
20260501233830 84 154 4.0 8.0 0.00 0.00 0.00 38 1010.7
20260501232822 84 166 2.0 9.0 0.00 0.00 0.00 40 1010.7
20260501231841 85 150 3.0 8.0 0.00 0.00 0.00 41 1010.9
20260501230839 84 112 3.0 8.0 0.00 0.00 0.00 41 1010.9
20260501225807 84 237 2.0 4.0 0.00 0.00 0.00 44 1011.1
20260501224825 84 255 2.0 9.0 0.00 0.00 0.00 44 1011.4
20260501223805 84 232 3.0 6.0 0.00 0.00 0.00 44 1011.6
20260501222821 83 162 4.0 8.0 0.00 0.00 0.00 44 1011.8
20260501221823 83 156 2.0 6.0 0.00 0.00 0.00 43 1011.9
20260501220824 83 108 2.0 6.0 0.00 0.00 0.00 44 1011.9
20260501215816 82 178 1.0 6.0 0.00 0.00 0.00 46 1012.1
20260501214816 82 153 3.0 6.0 0.00 0.00 0.00 46 1012.4
20260501213818 81 235 4.0 9.0 0.00 0.00 0.00 48 1012.3
20260501212833 81 260 4.0 8.0 0.00 0.00 0.00 48 1012.3
20260501211813 80 109 3.0 6.0 0.00 0.00 0.00 47 1012.4
20260501210831 80 122 2.0 8.0 0.00 0.00 0.00 48 1012.5
20260501205849 80 185 3.0 6.0 0.00 0.00 0.00 49 1012.7
20260501204823 79 87 1.0 8.0 0.00 0.00 0.00 48 1012.8
20260501203824 79 323 5.0 8.0 0.00 0.00 0.00 51 1012.8
20260501202815 78 195 3.0 10.0 0.00 0.00 0.00 53 1012.9
20260501201815 79 246 3.0 7.0 0.00 0.00 0.00 52 1013.1
20260501200817 79 209 4.0 9.0 0.00 0.00 0.00 52 1013.2
20260501195811 78 219 3.0 9.0 0.00 0.00 0.00 52 1013.2